Regional Weather Roundup
Issued by NWS

Home | Current Version | Previous Version | Graphics & Text | Print | Product List | Glossary On
Versions: 1 2 3 4 5 6 7 8 9 10 11 12 13 14 15 16 17 18 19 20 21 22 23 24 25 26 27 28 29 30 31 32 33 34 35 36 37 38 39 40 41 42 43 44 45 46 47 48 49 50
000
ASUS43 KTOP 231908
RWRKS

WEATHER ROUNDUP FOR KANSAS
NATIONAL WEATHER SERVICE GOODLAND KS
200 PM CDT MON OCT 23 2017

NOTE:  "FAIR" INDICATES FEW OR NO CLOUDS BELOW 12,000 FEET WITH NO
SIGNIFICANT WEATHER AND/OR OBSTRUCTIONS TO VISIBILITY.

KSZ001>006-013>018-027>032-041>047-232000-
NORTHWEST KANSAS

CITY           SKY/WX    TMP DP  RH WIND       PRES   REMARKS
GOODLAND       CLOUDY    57  19  22 N23G43    30.33F
HAYS           CLOUDY    65  28  24 N31G43    30.20S
HILL CITY      SUNNY     63  27  25 N28G38    30.25F
RUSSELL        MOSUNNY   66  27  23 N33G43    30.18S
$$

KSZ061>065-074>080-084>089-232000-
SOUTHWEST KANSAS

CITY           SKY/WX    TMP DP  RH WIND       PRES   REMARKS
DODGE CITY     SUNNY     67  30  25 NW22G35   30.25F
ELKHART          N/A     60  34  37 N12         N/A
GARDEN CITY    SUNNY     65  30  27 N24G31    30.29F
GREAT BEND     MOSUNNY   67  31  26 N25G33    30.19S
LIBERAL        SUNNY     65  36  34 N22G32    30.29F
PRATT          SUNNY     68  28  22 NW23G30   30.18F
$$

KSZ066>073-081>083-090>101-232000-
SOUTHEAST KANSAS

CITY           SKY/WX    TMP DP  RH WIND       PRES   REMARKS
CHANUTE        SUNNY     71  44  37 N15G26    30.01S
COFFEYVILLE    SUNNY     71  43  36 N13G26    30.02S
HUTCHINSON     SUNNY     68  29  23 N22G33    30.12F
MEDICINE LODGE   N/A     71  33  24 N22G32    30.15F
NEWTON         SUNNY     67  33  28 N25G35    30.11R
PARSONS        SUNNY     70  41  34 N15G24    30.03S
WICHITA INTL   MOSUNNY   71  36  27 N26G35    30.10S
WICHITA JABRA  SUNNY     71  35  26 N29G35    30.09S
WICHITA MCCONL MOSUNNY   71  36  28 N20G32    30.09S
WINFIELD       SUNNY     70  44  39 N22G32    30.10S
$$

KSZ007>012-019>026-033>040-048>060-102>105-232000-
NORTHEAST KANSAS

CITY           SKY/WX    TMP DP  RH WIND       PRES   REMARKS
CONCORDIA      SUNNY     66  31  27 N21G36    30.12F
EMPORIA        LGT RAIN  69  37  30 NW28G37   30.05S
LAWRENCE       SUNNY     66  43  43 NW21G31   29.99S
MANHATTAN      PTSUNNY   65  34  31 NW13G26   30.09R
MARYSVILLE     MOSUNNY   64  34  32 NW26G36   30.07R
OLATHE IND     SUNNY     66  43  43 NW18G28   29.98F
OLATHE EXE     SUNNY     63  40  42 NW18G28   29.97F
SALINA         SUNNY     66  29  24 NW32G41   30.12S
TOPEKA BILLARD SUNNY     67  39  35 NW18G30   30.01R
TOPEKA FORBES  SUNNY     67  38  34 NW22G33   30.01R
$$




USA.gov is the U.S. government's official web portal to all federal, state and local government web resources and services.